Stations météo

réclame
Mon MeteoGroup
Vigo Peinador, Espagne (8045): Température de l'air & dewpoint: 19.02.2018 10:00:00 - 25.02.2018 10:00:00 (CET)Vigo Peinador, Espagne (8045): Vitesse du vent: 19.02.2018 10:00:00 - 25.02.2018 10:00:00 (CET)Vigo Peinador, Espagne (8045): Direction du vent: 19.02.2018 10:00:00 - 25.02.2018 10:00:00 (CET)Vigo Peinador, Espagne (8045): reduced air pressure: 19.02.2018 10:00:00 - 25.02.2018 10:00:00 (CET)Vigo Peinador, Espagne (8045): visibility: 19.02.2018 10:00:00 - 25.02.2018 10:00:00 (CET)
Date & Time tt [°C] td [°C] ff [km/h] ff [knt] dd ppp [hPa] vv [km]
25.02.2018 10:00:00 4,9 0,0 11 6 SW 1012,3 35
25.02.2018 09:00:00 2,8 -0,8 11 6 SW 1012,3 10
25.02.2018 08:00:00 2,9 -1,5 13 7 SW 1011,7 10
25.02.2018 07:00:00 3,0 -1,4 16 9 SW 1011,6 30
25.02.2018 06:00:00 3,4 -1,4 13 7 SW 1010,9 10
25.02.2018 05:00:00 4,1 -1,7 11 6 WSW 1010,7 10
25.02.2018 04:00:00 4,8 -1,5 11 6 SW 1010,5 25
25.02.2018 03:00:00 4,9 -1,5 9 5 WSW 1010,4 10
25.02.2018 02:00:00 4,5 -0,4 8 4 SW 1010,4 10
25.02.2018 01:00:00 4,5 -0,5 2 1 - 1010,4 10
25.02.2018 00:00:00 5,1 -0,9 5 3 NNW 1009,9 10
24.02.2018 23:00:00 4,9 -0,5 5 3 W 1009,5 10
24.02.2018 22:00:00 5,7 0,6 4 2 NW 1009,0 30
24.02.2018 21:00:00 6,7 1,6 9 5 WNW 1008,3 10
24.02.2018 20:00:00 8,2 0,2 15 8 W 1007,6 10
24.02.2018 19:00:00 9,7 -0,8 15 8 W 1006,9 10
24.02.2018 18:00:00 11,9 -2,5 16 9 W 1006,1 10
24.02.2018 17:00:00 12,9 -2,8 13 7 W 1005,8 10
24.02.2018 16:00:00 13,4 -2,8 11 6 W 1005,6 30
24.02.2018 15:00:00 14,2 -2,2 8 4 WSW 1005,8 10
24.02.2018 14:00:00 14,1 -2,7 5 3 - 1006,4 10
24.02.2018 13:00:00 11,3 -2,2 9 5 SSW 1007,1 25
24.02.2018 12:00:00 8,7 -0,4 9 5 SSW 1007,1 10
24.02.2018 11:00:00 6,1 -1,0 13 7 SSW 1007,3 10
24.02.2018 10:00:00 4,3 -2,3 9 5 SSW 1007,4 30
24.02.2018 09:00:00 2,6 -3,3 9 5 SW 1007,3 10
24.02.2018 08:00:00 1,9 -3,0 11 6 SW 1007,0 10
24.02.2018 07:00:00 2,2 -2,5 13 7 SW 1006,6 20
24.02.2018 06:00:00 2,8 -1,6 11 6 SW 1006,1 10
24.02.2018 05:00:00 3,0 -0,6 13 7 SW 1005,9 10
24.02.2018 04:00:00 3,8 0,5 8 4 WSW 1006,0 10
24.02.2018 03:00:00 4,1 0,1 11 6 SW 1006,0 10
24.02.2018 02:00:00 3,3 -1,8 5 3 WSW 1006,1 10
24.02.2018 01:00:00 5,6 -1,3 8 4 N 1006,0 20
24.02.2018 00:00:00 5,9 0,0 5 3 N 1006,2 10
23.02.2018 23:00:00 6,0 1,2 8 4 NNW 1006,3 10
23.02.2018 22:00:00 5,6 -0,5 4 2 NNW 1006,1 20
23.02.2018 21:00:00 6,4 -0,1 8 4 NNW 1006,2 10
23.02.2018 20:00:00 8,0 3,3 15 8 W 1005,9 10
23.02.2018 19:00:00 9,4 3,6 15 8 W 1005,5 20
23.02.2018 18:00:00 11,6 1,0 18 10 W 1005,1 10
23.02.2018 17:00:00 13,1 0,8 18 10 W 1004,9 10
23.02.2018 16:00:00 14,5 0,6 8 4 S 1005,1 25
23.02.2018 15:00:00 13,9 0,2 8 4 SSW 1005,9 10
23.02.2018 14:00:00 12,8 0,9 9 5 - 1006,6 10
23.02.2018 13:00:00 11,1 0,1 11 6 SSW 1007,2 10
23.02.2018 12:00:00 8,8 0,1 9 5 SSW 1007,8 10
23.02.2018 11:00:00 6,1 1,2 13 7 SSW 1008,1 10
23.02.2018 10:00:00 4,2 0,6 9 5 SSW 1008,4 10
23.02.2018 09:00:00 2,2 0,7 13 7 SSW 1008,5 10
23.02.2018 08:00:00 2,4 0,9 8 4 SW 1008,1 10
23.02.2018 07:00:00 2,9 1,3 9 5 SW 1008,2 8
23.02.2018 06:00:00 3,3 1,8 9 5 WSW 1008,2 8
23.02.2018 05:00:00 3,8 2,0 9 5 WSW 1008,1 8
23.02.2018 04:00:00 4,0 2,8 13 7 SSW 1008,2 8
23.02.2018 03:00:00 4,7 3,7 8 4 SW 1008,4 7
23.02.2018 02:00:00 5,4 4,5 5 3 SW 1008,6 7
23.02.2018 01:00:00 5,3 4,6 5 3 WSW 1009,1 7
23.02.2018 00:00:00 5,8 4,6 4 2 WNW 1009,3 7
22.02.2018 23:00:00 6,9 5,4 9 5 N 1009,4 10
22.02.2018 22:00:00 6,3 4,6 4 2 N 1009,8 15
22.02.2018 21:00:00 7,6 6,2 11 6 W 1009,8 10
22.02.2018 20:00:00 8,6 5,7 13 7 W 1010,0 10
22.02.2018 19:00:00 10,0 5,2 15 8 W 1009,7 30
22.02.2018 18:00:00 11,7 4,3 15 8 W 1009,8 10
22.02.2018 17:00:00 13,0 2,8 11 6 W 1009,8 10
22.02.2018 16:00:00 12,9 1,2 15 8 NW 1010,2 30
22.02.2018 15:00:00 13,4 1,5 11 6 N 1010,7 10
22.02.2018 14:00:00 13,5 2,2 9 5 ENE 1011,3 10
22.02.2018 13:00:00 12,7 3,4 8 4 SE 1012,1 30
22.02.2018 12:00:00 8,8 2,9 9 5 SSW 1012,8 10
22.02.2018 11:00:00 7,8 2,4 5 3 - 1013,2 10
22.02.2018 10:00:00 5,1 1,8 9 5 SSW 1013,6 30
22.02.2018 09:00:00 2,9 1,1 8 4 SSW 1013,6 10
22.02.2018 08:00:00 2,5 0,9 4 2 - 1013,3 10
22.02.2018 07:00:00 2,8 1,2 9 5 SW 1013,0 25
22.02.2018 06:00:00 3,5 1,4 13 7 SSW 1012,5 10
22.02.2018 05:00:00 3,9 1,4 11 6 SSW 1012,3 10
22.02.2018 04:00:00 4,4 1,6 11 6 SW 1012,5 25
22.02.2018 03:00:00 4,8 1,6 16 9 SSW 1012,7 10
22.02.2018 02:00:00 5,3 1,8 13 7 SSW 1012,6 10
22.02.2018 01:00:00 5,6 0,6 4 2 - 1012,7 10
22.02.2018 00:00:00 6,3 0,8 15 8 NNE 1012,8 10
21.02.2018 23:00:00 7,5 0,9 15 8 NE 1013,0 10
21.02.2018 22:00:00 7,4 1,6 13 7 NNE 1013,2 10
21.02.2018 21:00:00 8,8 1,9 16 9 NNE 1013,1 10
21.02.2018 20:00:00 10,0 1,6 16 9 NNE 1012,7 -
21.02.2018 19:00:00 11,9 1,2 16 9 NE 1012,2 10
21.02.2018 18:00:00 13,8 0,8 18 10 ENE 1011,7 10
21.02.2018 17:00:00 15,2 0,6 18 10 NE 1011,6 10
21.02.2018 16:00:00 16,3 1,4 15 8 NE 1011,9 40
21.02.2018 15:00:00 15,8 1,4 13 7 NNE 1012,9 10
21.02.2018 14:00:00 15,5 1,7 18 10 ENE 1014,1 10
21.02.2018 13:00:00 14,1 1,9 15 8 NE 1015,3 10
21.02.2018 12:00:00 13,0 1,6 13 7 NE 1015,9 10
21.02.2018 11:00:00 11,8 1,9 9 5 ENE 1016,4 10
21.02.2018 10:00:00 8,8 2,2 8 4 E 1016,8 45
21.02.2018 09:00:00 5,3 1,4 5 3 NNW 1017,4 10
21.02.2018 08:00:00 5,0 1,6 9 5 NNW 1017,6 10
21.02.2018 07:00:00 6,3 2,9 8 4 NNE 1017,7 10
21.02.2018 06:00:00 6,7 3,7 9 5 N 1017,8 10
21.02.2018 05:00:00 7,3 4,2 11 6 N 1018,1 10
21.02.2018 04:00:00 7,1 4,6 13 7 N 1018,9 35
21.02.2018 03:00:00 6,8 4,5 8 4 N 1019,9 10
21.02.2018 02:00:00 6,6 3,0 5 3 W 1020,5 10
21.02.2018 01:00:00 10,0 2,3 5 3 ESE 1020,5 35
21.02.2018 00:00:00 8,6 3,2 4 2 - 1021,0 10
20.02.2018 23:00:00 9,7 3,6 8 4 NE 1021,3 10
20.02.2018 22:00:00 10,7 3,9 18 10 NE 1021,0 10
20.02.2018 21:00:00 10,8 4,3 22 12 NNE 1021,0 10
20.02.2018 20:00:00 11,6 4,6 9 5 NNE 1020,7 10
20.02.2018 19:00:00 12,9 4,6 18 10 NE 1020,1 35
20.02.2018 18:00:00 14,7 4,7 22 12 NE 1019,6 10
20.02.2018 17:00:00 15,6 4,6 22 12 NE 1019,7 10
20.02.2018 16:00:00 16,2 4,2 22 12 NE 1020,0 35
20.02.2018 15:00:00 16,1 4,4 21 11 ENE 1020,8 10
20.02.2018 14:00:00 15,8 5,1 18 10 NE 1021,5 10
20.02.2018 13:00:00 15,2 5,2 18 10 ENE 1022,2 35
20.02.2018 12:00:00 14,5 5,2 21 11 ENE 1022,8 10
20.02.2018 11:00:00 13,0 5,6 15 8 ENE 1023,2 10
20.02.2018 10:00:00 10,3 5,0 9 5 NE 1023,2 35
20.02.2018 09:00:00 6,7 4,5 5 3 NE 1023,5 10
20.02.2018 08:00:00 7,4 3,6 15 8 NNE 1023,0 10
20.02.2018 07:00:00 8,0 3,5 15 8 N 1023,2 30
20.02.2018 06:00:00 8,1 4,1 18 10 NNE 1023,3 10
20.02.2018 05:00:00 7,7 4,7 11 6 NNE 1023,5 10
20.02.2018 04:00:00 7,7 5,5 11 6 NE 1023,6 30
20.02.2018 03:00:00 7,4 6,6 9 5 NE 1023,8 10
20.02.2018 02:00:00 8,4 6,2 9 5 NE 1023,6 10
20.02.2018 01:00:00 7,4 7,0 0 0 N 1023,8 10
20.02.2018 00:00:00 8,3 7,4 8 4 ENE 1023,4 10
19.02.2018 23:00:00 9,2 7,6 5 3 NE 1023,4 10
19.02.2018 22:00:00 9,9 7,8 13 7 NNE 1023,4 10
19.02.2018 21:00:00 10,2 7,7 15 8 N 1023,4 10
19.02.2018 20:00:00 10,9 7,2 16 9 NNE 1022,9 10
19.02.2018 19:00:00 11,6 7,5 18 10 N 1022,6 30
19.02.2018 18:00:00 12,9 7,3 21 11 N 1022,3 10
19.02.2018 17:00:00 13,6 6,8 21 11 N 1022,1 10
19.02.2018 16:00:00 13,3 7,2 22 12 N 1022,5 30
19.02.2018 15:00:00 13,4 6,5 22 12 N 1022,8 10
19.02.2018 14:00:00 13,7 7,4 22 12 N 1023,1 10
19.02.2018 13:00:00 12,8 6,7 13 7 N 1023,7 30
19.02.2018 12:00:00 12,3 6,8 8 4 NNE 1024,1 10
19.02.2018 11:00:00 10,8 7,8 5 3 NE 1024,2 10
19.02.2018 10:00:00 8,9 6,7 4 2 NE 1024,3 30

tt = Température de l'air
td = dewpoint
ff = Vitesse du vent
dd = Direction du vent
ppp = reduced air pressure
vv = visibility

stations d'obs. à proximité